EZY8648 EGKK-EHAM

Flight info

Callsign EZY8648
Flight time 0h 43m
Altitude 29000
Route FRANE M604 GASBA M197 REDFA
Aircraft A320/M-SDE3FGHIRWY/LB1

Departure

Time 2026-05-07 09:24
Airport London Gatwick Airport (EGKK)

Arrival

Time 2026-05-07 10:08
Airport Amsterdam Airport Schiphol (EHAM)
Time Latitude Longitude Altitude Speed Heading
2026-05-07 08:47 51.15591 -0.17621 213 ft 0 kts 347°
2026-05-07 09:13 51.15575 -0.17615 206 ft 4 kts 343°
2026-05-07 09:13 51.15550 -0.17599 210 ft 4 kts 327°
2026-05-07 09:14 51.15533 -0.17572 214 ft 4 kts 281°
2026-05-07 09:14 51.15532 -0.17557 209 ft 0 kts 257°
2026-05-07 09:16 51.15530 -0.17572 212 ft 5 kts 257°
2026-05-07 09:17 51.15524 -0.17611 210 ft 8 kts 257°
2026-05-07 09:17 51.15507 -0.17733 204 ft 14 kts 257°
2026-05-07 09:17 51.15481 -0.17918 204 ft 19 kts 257°
2026-05-07 09:17 51.15452 -0.18124 207 ft 19 kts 258°
2026-05-07 09:18 51.15421 -0.18261 211 ft 9 kts 223°
2026-05-07 09:18 51.15355 -0.18264 204 ft 11 kts 167°
2026-05-07 09:18 51.15266 -0.18233 210 ft 9 kts 167°
2026-05-07 09:18 51.15199 -0.18237 214 ft 12 kts 217°
2026-05-07 09:19 51.15179 -0.18378 204 ft 15 kts 259°
2026-05-07 09:19 51.15153 -0.18562 207 ft 19 kts 258°
2026-05-07 09:19 51.15122 -0.18787 207 ft 23 kts 257°
2026-05-07 09:19 51.15086 -0.19051 214 ft 26 kts 257°
2026-05-07 09:20 51.15045 -0.19346 204 ft 29 kts 258°
2026-05-07 09:20 51.15013 -0.19568 215 ft 19 kts 257°
2026-05-07 09:20 51.14982 -0.19775 210 ft 19 kts 257°
2026-05-07 09:20 51.14953 -0.19992 207 ft 21 kts 259°
2026-05-07 09:21 51.14922 -0.20228 207 ft 23 kts 257°
2026-05-07 09:21 51.14888 -0.20487 203 ft 25 kts 258°
2026-05-07 09:21 51.14847 -0.20762 203 ft 26 kts 258°
2026-05-07 09:21 51.14817 -0.20987 207 ft 16 kts 258°
2026-05-07 09:22 51.14792 -0.21147 214 ft 14 kts 248°
2026-05-07 09:22 51.14767 -0.21301 212 ft 15 kts 258°
2026-05-07 09:22 51.14709 -0.21400 208 ft 10 kts 180°
2026-05-07 09:22 51.14646 -0.21342 210 ft 12 kts 148°
2026-05-07 09:23 51.14569 -0.21303 205 ft 11 kts 155°
2026-05-07 09:23 51.14519 -0.21199 210 ft 12 kts 102°
2026-05-07 09:23 51.14536 -0.21073 203 ft 15 kts 76°
2026-05-07 09:23 51.14605 -0.20554 209 ft 84 kts 78°
2026-05-07 09:24 51.14776 -0.19308 207 ft 142 kts 78°
2026-05-07 09:24 51.14998 -0.17575 466 ft 167 kts 78°
2026-05-07 09:24 51.15257 -0.15786 1111 ft 168 kts 78°
2026-05-07 09:24 51.15565 -0.13941 1827 ft 170 kts 76°
2026-05-07 09:25 51.15906 -0.12069 2347 ft 186 kts 75°
2026-05-07 09:25 51.16260 -0.10064 2766 ft 205 kts 76°
2026-05-07 09:25 51.16580 -0.07721 3189 ft 229 kts 79°
2026-05-07 09:25 51.16888 -0.05074 3654 ft 253 kts 80°
2026-05-07 09:26 51.16970 -0.02199 4361 ft 265 kts 94°
2026-05-07 09:26 51.16862 0.00786 4803 ft 271 kts 94°
2026-05-07 09:26 51.16778 0.03774 4907 ft 269 kts 93°
2026-05-07 09:26 51.16724 0.06750 4943 ft 270 kts 88°
2026-05-07 09:27 51.17189 0.09654 5754 ft 274 kts 64°
2026-05-07 09:27 51.18355 0.12053 6664 ft 279 kts 39°
2026-05-07 09:27 51.21618 0.15533 8473 ft 285 kts 33°
2026-05-07 09:28 51.23286 0.17250 9387 ft 287 kts 32°
2026-05-07 09:28 51.24980 0.18996 10202 ft 295 kts 33°
2026-05-07 09:28 51.26700 0.20775 10474 ft 317 kts 33°
2026-05-07 09:28 51.28617 0.22765 10729 ft 340 kts 33°
2026-05-07 09:29 51.30657 0.24895 11299 ft 351 kts 33°
2026-05-07 09:29 51.32715 0.27049 11997 ft 356 kts 33°
2026-05-07 09:29 51.34776 0.29211 12860 ft 360 kts 33°
2026-05-07 09:29 51.36912 0.31451 13621 ft 365 kts 33°
2026-05-07 09:30 51.39026 0.33665 14268 ft 370 kts 32°
2026-05-07 09:30 51.41195 0.35937 14914 ft 374 kts 33°
2026-05-07 09:30 51.43376 0.38224 15536 ft 378 kts 33°
2026-05-07 09:30 51.45589 0.40550 16195 ft 382 kts 33°
2026-05-07 09:31 51.47825 0.42907 16823 ft 386 kts 33°
2026-05-07 09:31 51.50071 0.45275 17445 ft 389 kts 33°
2026-05-07 09:31 51.52351 0.47678 18058 ft 393 kts 33°
2026-05-07 09:31 51.54637 0.50091 18628 ft 396 kts 33°
2026-05-07 09:32 51.56947 0.52538 19159 ft 399 kts 33°
2026-05-07 09:32 51.59278 0.55009 19679 ft 402 kts 33°
2026-05-07 09:32 51.61620 0.57496 20208 ft 405 kts 33°
2026-05-07 09:32 51.63984 0.60007 20715 ft 408 kts 33°
2026-05-07 09:33 51.66353 0.62526 21234 ft 410 kts 33°
2026-05-07 09:33 51.68753 0.65078 21724 ft 414 kts 33°
2026-05-07 09:33 51.71158 0.67638 22232 ft 416 kts 33°
2026-05-07 09:33 51.73581 0.70225 22706 ft 419 kts 33°
2026-05-07 09:34 51.76028 0.72843 23192 ft 422 kts 33°
2026-05-07 09:34 51.78470 0.75502 23648 ft 425 kts 36°
2026-05-07 09:34 51.80706 0.78615 24051 ft 428 kts 45°
2026-05-07 09:34 51.82630 0.82282 24490 ft 428 kts 55°
2026-05-07 09:35 51.84167 0.86337 24923 ft 428 kts 64°
2026-05-07 09:35 51.85313 0.90768 25340 ft 428 kts 72°
2026-05-07 09:35 51.86176 0.95456 25745 ft 429 kts 74°
2026-05-07 09:35 51.87008 1.00037 26142 ft 431 kts 73°
2026-05-07 09:36 51.87855 1.04708 26499 ft 434 kts 73°
2026-05-07 09:36 51.88704 1.09411 26886 ft 435 kts 73°
2026-05-07 09:36 51.89551 1.14116 27251 ft 437 kts 73°
2026-05-07 09:36 51.90402 1.18844 27629 ft 438 kts 73°
2026-05-07 09:37 51.91255 1.23599 27988 ft 440 kts 73°
2026-05-07 09:37 51.92108 1.28359 28339 ft 441 kts 73°
2026-05-07 09:37 51.92965 1.33150 28690 ft 442 kts 74°
2026-05-07 09:37 51.93823 1.37963 28990 ft 444 kts 74°
2026-05-07 09:38 51.94672 1.42759 29094 ft 441 kts 74°
2026-05-07 09:38 51.96352 1.52275 29099 ft 438 kts 74°
2026-05-07 09:39 51.98022 1.61776 29099 ft 438 kts 74°
2026-05-07 09:39 51.99710 1.71364 29105 ft 443 kts 74°
2026-05-07 09:40 52.01284 1.80978 29108 ft 438 kts 76°
2026-05-07 09:40 52.02727 1.90588 29107 ft 438 kts 76°
2026-05-07 09:41 52.04154 2.00174 29110 ft 437 kts 76°
2026-05-07 09:41 52.04881 2.04976 28967 ft 437 kts 76°
2026-05-07 09:41 52.05610 2.09773 28688 ft 438 kts 76°
2026-05-07 09:41 52.06339 2.14551 28113 ft 434 kts 76°
2026-05-07 09:42 52.07065 2.19306 27399 ft 431 kts 76°
2026-05-07 09:42 52.07779 2.24013 26700 ft 428 kts 76°
2026-05-07 09:42 52.08485 2.28690 26001 ft 425 kts 76°
2026-05-07 09:42 52.09183 2.33350 25335 ft 423 kts 76°
2026-05-07 09:43 52.10145 2.37787 25118 ft 408 kts 65°
2026-05-07 09:43 52.11320 2.42015 24913 ft 420 kts 66°
2026-05-07 09:43 52.12530 2.46426 24668 ft 431 kts 66°
2026-05-07 09:43 52.13751 2.50916 24426 ft 435 kts 66°
2026-05-07 09:44 52.14977 2.55424 24184 ft 435 kts 66°
2026-05-07 09:44 52.16200 2.59917 23948 ft 434 kts 66°
2026-05-07 09:44 52.17429 2.64421 23717 ft 434 kts 66°
2026-05-07 09:44 52.18654 2.68906 23313 ft 432 kts 66°
2026-05-07 09:45 52.19875 2.73372 22900 ft 430 kts 66°
2026-05-07 09:45 52.21085 2.77811 22618 ft 428 kts 66°
2026-05-07 09:45 52.22290 2.82247 22341 ft 427 kts 66°
2026-05-07 09:45 52.23468 2.86603 22071 ft 425 kts 66°
2026-05-07 09:46 52.24658 2.91012 21812 ft 424 kts 66°
2026-05-07 09:46 52.25842 2.95400 21552 ft 420 kts 66°
2026-05-07 09:46 52.27022 2.99765 21278 ft 419 kts 66°
2026-05-07 09:46 52.28193 3.04109 21018 ft 417 kts 66°
2026-05-07 09:47 52.29357 3.08447 20769 ft 417 kts 66°
2026-05-07 09:47 52.30517 3.12789 20507 ft 415 kts 66°
2026-05-07 09:47 52.31669 3.17119 20237 ft 414 kts 66°
2026-05-07 09:47 52.32813 3.21420 19996 ft 413 kts 66°
2026-05-07 09:48 52.33959 3.25730 19741 ft 411 kts 66°
2026-05-07 09:48 52.35087 3.29972 19504 ft 410 kts 66°
2026-05-07 09:48 52.36241 3.34310 19253 ft 409 kts 66°
2026-05-07 09:48 52.37357 3.38513 19015 ft 408 kts 66°
2026-05-07 09:49 52.38482 3.42768 18774 ft 406 kts 66°
2026-05-07 09:49 52.39599 3.47011 18531 ft 406 kts 66°
2026-05-07 09:49 52.40714 3.51258 18281 ft 404 kts 66°
2026-05-07 09:49 52.41822 3.55479 18002 ft 403 kts 66°
2026-05-07 09:50 52.42921 3.59673 17732 ft 401 kts 66°
2026-05-07 09:50 52.44017 3.63863 17464 ft 399 kts 66°
2026-05-07 09:50 52.45111 3.68052 17205 ft 397 kts 66°
2026-05-07 09:50 52.46192 3.72196 16931 ft 396 kts 66°
2026-05-07 09:51 52.47274 3.76339 16670 ft 394 kts 66°
2026-05-07 09:51 52.48344 3.80447 16228 ft 388 kts 66°
2026-05-07 09:51 52.49397 3.84504 15702 ft 384 kts 66°
2026-05-07 09:51 52.50440 3.88526 15166 ft 381 kts 66°
2026-05-07 09:52 52.51036 3.91230 14816 ft 380 kts 73°
2026-05-07 09:52 52.51493 3.95487 14251 ft 379 kts 86°
2026-05-07 09:52 52.51407 3.99818 13475 ft 382 kts 98°
2026-05-07 09:52 52.50651 4.03993 12980 ft 378 kts 112°
2026-05-07 09:53 52.49684 4.07991 12714 ft 373 kts 111°
2026-05-07 09:53 52.48739 4.11947 12452 ft 371 kts 111°
2026-05-07 09:53 52.47802 4.15866 12193 ft 369 kts 111°
2026-05-07 09:53 52.46862 4.19774 11930 ft 368 kts 111°
2026-05-07 09:54 52.45919 4.23663 11673 ft 366 kts 112°
2026-05-07 09:54 52.44826 4.27404 11422 ft 363 kts 124°
2026-05-07 09:54 52.43072 4.30326 11162 ft 360 kts 146°
2026-05-07 09:54 52.40902 4.32379 10922 ft 359 kts 152°
2026-05-07 09:55 52.38700 4.34290 10664 ft 358 kts 153°
2026-05-07 09:55 52.36522 4.36178 10410 ft 344 kts 153°
2026-05-07 09:55 52.34484 4.37947 10165 ft 320 kts 153°
2026-05-07 09:55 52.32584 4.39601 9915 ft 299 kts 152°
2026-05-07 09:56 52.30986 4.41625 9649 ft 290 kts 128°
2026-05-07 09:56 52.30097 4.44536 9383 ft 287 kts 102°
2026-05-07 09:56 52.30100 4.47761 9112 ft 285 kts 75°
2026-05-07 09:56 52.30979 4.50623 8772 ft 285 kts 49°
2026-05-07 09:57 52.32525 4.52535 8304 ft 284 kts 22°
2026-05-07 09:57 52.34430 4.53349 7838 ft 284 kts
2026-05-07 09:57 52.36351 4.52797 7366 ft 282 kts 335°
2026-05-07 09:57 52.37914 4.50892 6832 ft 285 kts 309°
2026-05-07 09:58 52.38811 4.47980 6155 ft 291 kts 282°
2026-05-07 09:58 52.39041 4.44662 5475 ft 297 kts 274°
2026-05-07 09:58 52.39133 4.41263 4788 ft 301 kts 272°
2026-05-07 09:58 52.39199 4.37821 4227 ft 302 kts 273°
2026-05-07 09:59 52.39187 4.34461 4080 ft 288 kts 262°
2026-05-07 09:59 52.38482 4.31531 4089 ft 272 kts 234°
2026-05-07 09:59 52.37064 4.29553 4089 ft 269 kts 205°
2026-05-07 09:59 52.35258 4.28922 4093 ft 267 kts 176°
2026-05-07 10:00 52.33447 4.29499 4095 ft 266 kts 163°
2026-05-07 10:00 52.31660 4.30330 4091 ft 266 kts 162°
2026-05-07 10:00 52.29893 4.31176 3728 ft 264 kts 162°
2026-05-07 10:00 52.28129 4.32012 3284 ft 263 kts 161°
2026-05-07 10:01 52.26540 4.33372 2876 ft 258 kts 138°
2026-05-07 10:01 52.25243 4.35376 2439 ft 256 kts 133°
2026-05-07 10:01 52.24011 4.37447 2060 ft 253 kts 133°
2026-05-07 10:01 52.22798 4.39514 2007 ft 249 kts 132°
2026-05-07 10:02 52.21636 4.41473 2013 ft 232 kts 133°
2026-05-07 10:02 52.20547 4.43302 2009 ft 217 kts 132°
2026-05-07 10:02 52.19716 4.45240 2031 ft 201 kts 111°
2026-05-07 10:02 52.19426 4.47319 2012 ft 176 kts 89°
2026-05-07 10:03 52.19560 4.49098 2018 ft 149 kts 72°
2026-05-07 10:03 52.19987 4.50642 2030 ft 156 kts 57°
2026-05-07 10:03 52.20576 4.52157 2018 ft 158 kts 56°
2026-05-07 10:03 52.21158 4.53655 2016 ft 158 kts 56°
2026-05-07 10:04 52.21743 4.55165 2010 ft 158 kts 57°
2026-05-07 10:04 52.22330 4.56679 2018 ft 158 kts 57°
2026-05-07 10:04 52.22916 4.58191 2006 ft 152 kts 57°
2026-05-07 10:04 52.23454 4.59582 1940 ft 140 kts 57°
2026-05-07 10:05 52.23964 4.60901 1830 ft 136 kts 56°
2026-05-07 10:05 52.24467 4.62201 1664 ft 135 kts 56°
2026-05-07 10:05 52.24967 4.63494 1491 ft 135 kts 57°
2026-05-07 10:05 52.25464 4.64783 1304 ft 134 kts 56°
2026-05-07 10:06 52.25962 4.66074 1125 ft 134 kts 56°
2026-05-07 10:06 52.26447 4.67364 950 ft 133 kts 56°
2026-05-07 10:06 52.26944 4.68643 797 ft 133 kts 56°
2026-05-07 10:06 52.27441 4.69940 596 ft 135 kts 56°
2026-05-07 10:07 52.27936 4.71228 406 ft 132 kts 56°
2026-05-07 10:07 52.28437 4.72492 228 ft 132 kts 54°
2026-05-07 10:07 52.28924 4.73758 34 ft 132 kts 55°
2026-05-07 10:07 52.29389 4.74935 -2 ft 110 kts 54°
2026-05-07 10:08 52.29692 4.75764 -4 ft 60 kts 60°
2026-05-07 10:08 52.29892 4.76255 -6 ft 44 kts 57°
2026-05-07 10:08 52.29993 4.76488 -3 ft 20 kts 43°
2026-05-07 10:08 52.30111 4.76609 -3 ft 17 kts 28°
2026-05-07 10:09 52.30180 4.76669 -2 ft 0 kts 27°
2026-05-07 10:09 52.30191 4.76678 -2 ft 6 kts 27°
2026-05-07 10:09 52.30216 4.76691 -2 ft 6 kts
2026-05-07 10:10 52.30233 4.76642 -2 ft 5 kts 263°
2026-05-07 10:10 52.30219 4.76595 -2 ft 4 kts 240°
2026-05-07 10:10 52.30207 4.76555 -2 ft 4 kts 247°
2026-05-07 10:10 52.30196 4.76525 -2 ft 2 kts 239°
2026-05-07 10:11 52.30190 4.76507 -2 ft 2 kts 238°
2026-05-07 10:11 52.30172 4.76461 -2 ft 9 kts 239°
2026-05-07 10:11 52.30122 4.76328 -2 ft 18 kts 237°
2026-05-07 10:11 52.30041 4.76117 -3 ft 24 kts 238°
2026-05-07 10:12 52.29947 4.75869 -3 ft 27 kts 238°
2026-05-07 10:12 52.29857 4.75637 -2 ft 25 kts 238°
2026-05-07 10:12 52.29786 4.75445 -2 ft 15 kts 243°
2026-05-07 10:12 52.29799 4.75275 -2 ft 18 kts 305°
2026-05-07 10:13 52.29894 4.75097 -2 ft 23 kts 311°
2026-05-07 10:13 52.30006 4.74889 -2 ft 26 kts 311°
2026-05-07 10:13 52.30135 4.74650 -2 ft 30 kts 310°
2026-05-07 10:13 52.30240 4.74451 -2 ft 18 kts 311°
2026-05-07 10:14 52.30298 4.74344 -2 ft 13 kts 313°
2026-05-07 10:14 52.30372 4.74229 -2 ft 16 kts 328°
2026-05-07 10:14 52.30489 4.74197 -2 ft 18 kts
2026-05-07 10:14 52.30625 4.74209 -2 ft 21 kts
2026-05-07 10:15 52.30779 4.74223 -2 ft 24 kts
2026-05-07 10:15 52.30957 4.74239 -2 ft 26 kts
2026-05-07 10:15 52.31139 4.74257 -2 ft 27 kts
2026-05-07 10:15 52.31306 4.74271 -2 ft 14 kts
2026-05-07 10:16 52.31388 4.74349 -2 ft 15 kts 72°
2026-05-07 10:16 52.31398 4.74540 -2 ft 18 kts 88°
2026-05-07 10:16 52.31405 4.74771 -2 ft 22 kts 87°
2026-05-07 10:16 52.31414 4.75036 -2 ft 25 kts 86°
2026-05-07 10:17 52.31422 4.75296 -2 ft 15 kts 86°
2026-05-07 10:17 52.31414 4.75415 -2 ft 9 kts 120°
2026-05-07 10:17 52.31340 4.75449 -2 ft 15 kts 177°
2026-05-07 10:17 52.31220 4.75460 -2 ft 18 kts 176°
2026-05-07 10:18 52.31138 4.75451 -2 ft 7 kts 202°
2026-05-07 10:18 52.31101 4.75460 -2 ft 5 kts 147°
2026-05-07 10:18 52.31071 4.75490 -2 ft 5 kts 149°
2026-05-07 10:18 52.31047 4.75512 -2 ft 0 kts 150°
2026-05-07 10:19 52.31046 4.75513 -2 ft 0 kts 150°